Location: Allie Creek
(37.5926°N, 89.8526°W)
Time: 14:11:34
(UTC+00:00)

Meteor 1-27 Rocket - Pass Details

Date: 14 April 2024
Orbit: 829 x 909 km, 81.3° (Epoch: 26 May)

Event Time Altitude Azimuth Distance (km) Brightness Sun altitude
Exits shadow 08:04:40 31° 95° (E) 1,504 5.2 -34.5°
Maximum altitude 08:04:54 31° 90° (E) 1,501 5.2 -34.4°
Drops below altitude 10° 08:09:52 10° 30° (NNE) 2,525 7.0 -33.8°
Sets 08:12:31 0° 21° (NNE) 3,453 7.8 -33.5°
